Weather History for Camarillo, CA

Change the Weather History Date:

Monday, January 23, 2012

  Actual Average Record
Temperature  
Mean Temperature 52 °F 54 °F  
Max Temperature 57 °F 66 °F 84 °F (1953)
Min Temperature 46 °F 43 °F 30 °F (1966)
Degree Days  
Heating Degree Days 13 11  
Month to date heating degree days 187 253  
Since 1 July heating degree days 769 934  
Cooling Degree Days 0 0  
Month to date cooling degree days 5 0  
Year to date cooling degree days 5 0  
Growing Degree Days 2 (Base 50)    
Moisture  
Dew Point 50 °F    
Average Humidity 88    
Maximum Humidity 96    
Minimum Humidity 80    
Precipitation  
Precipitation 0.69 in 0.11 in 2.93 in (1983)
Month to date precipitation 1.60 2.98  
Year to date precipitation 1.60 2.98  
Since 1 July precipitation 4.63 7.22  
Sea Level Pressure  
Sea Level Pressure 30.00 in    
Wind  
Wind Speed 5 mph (NE)    
Max Wind Speed 15 mph    
Max Gust Speed 20 mph    
Visibility 7 miles    
Events Rain    
T = Trace of Precipitation, MM = Missing Value Source: NWS Daily Summary

Daily Weather History Graph

Daily Weather History Graph

Search for Another Location

Airport:

Trip Planner

Search our weather history database for the weather conditions in past years. The results will help you decide how hot, cold, wet, or windy it might be!

Date:

Astronomy

Jan. 23, 2012 Rise Set
Actual Time 6:59 AM PST 5:17 PM PST
Civil Twilight 6:32 AM PST 5:44 PM PST
Nautical Twilight 6:02 AM PST 6:14 PM PST
Astronomical Twilight 5:32 AM PST 6:44 PM PST
Moon 7:00 AM PST (1/23) 6:06 PM PST (1/23)
Length of Visible Light 11h 11m
Length of Day
10h 17m
New Moon, 0% of the Moon is Illuminated
Jan 23
New Moon
Jan 30
First Quarter
Feb 7
Full
Feb 14
Last Quarter
Feb 21
New

Hourly Weather History & Observations

Time (PST) Temp. Dew Point Humidity Pressure Visibility Wind Dir Wind Speed Gust Speed Precip Events Conditions
12:55 AM 54.0 °F 48.9 °F 83% 30.13 in 10.0 mi NE 4.6 mph - N/A   Overcast
1:55 AM 52.0 °F 50.0 °F 93% 30.11 in 10.0 mi West 5.8 mph - N/A   Overcast
2:55 AM 53.1 °F 48.9 °F 86% 30.10 in 10.0 mi NW 5.8 mph - 0.00 in   Overcast
3:55 AM 54.0 °F 50.0 °F 86% 30.09 in 10.0 mi ESE 4.6 mph - 0.00 in   Overcast
4:55 AM 53.1 °F 50.0 °F 89% 30.07 in 10.0 mi Calm Calm - 0.00 in   Overcast
5:55 AM 52.0 °F 50.0 °F 93% 30.06 in 6.0 mi NE 5.8 mph - 0.03 in Rain Light Rain
6:02 AM 51.8 °F 50.0 °F 94% 30.04 in 6.0 mi NNE 5.8 mph - 0.02 in Rain Rain
6:47 AM 51.8 °F 48.2 °F 88% 30.03 in 4.0 mi Calm Calm - 0.10 in Rain Light Rain
7:55 AM 51.1 °F 48.9 °F 92% 30.04 in 2.0 mi East 3.5 mph - 0.01 in Rain Light Rain
8:04 AM 51.8 °F 48.2 °F 88% 30.01 in 2.0 mi NE 3.5 mph - 0.00 in Rain Light Rain
8:08 AM 51.8 °F 48.2 °F 88% 30.01 in 1.8 mi NE 4.6 mph - 0.01 in Rain Light Rain
8:11 AM 51.8 °F 48.2 °F 88% 30.01 in 1.5 mi NE 5.8 mph - 0.01 in Rain Light Rain
8:16 AM 51.8 °F 48.2 °F 88% 30.01 in 1.8 mi ENE 4.6 mph - 0.01 in Rain Light Rain
8:30 AM 51.8 °F 50.0 °F 94% 30.01 in 1.8 mi NNE 6.9 mph - 0.02 in Rain Light Rain
8:34 AM 51.8 °F 48.2 °F 88% 30.01 in 2.0 mi NE 6.9 mph - 0.02 in Rain Light Rain
8:55 AM 51.1 °F 48.9 °F 92% 30.03 in 4.0 mi ENE 8.1 mph - 0.02 in Rain Light Rain
9:55 AM 51.1 °F 48.9 °F 92% 30.03 in 4.0 mi North 10.4 mph - 0.21 in Rain Rain
10:55 AM 55.0 °F 50.0 °F 83% 30.01 in 10.0 mi NE 11.5 mph - 0.03 in   Overcast
1:00 PM 53.6 °F 51.8 °F 94% 29.90 in 5.0 mi NE 9.2 mph - 0.00 in Rain Light Rain
1:55 PM 55.0 °F 52.0 °F 89% 29.92 in 4.0 mi NNE 4.6 mph - 0.17 in Rain Light Rain
2:34 PM 53.6 °F 51.8 °F 94% 29.89 in 5.0 mi Calm Calm - 0.02 in   Mostly Cloudy
2:55 PM 55.0 °F 52.0 °F 89% 29.92 in 10.0 mi Calm Calm - 0.02 in   Mostly Cloudy
3:14 PM 55.4 °F 51.8 °F 88% 29.89 in 10.0 mi Calm Calm - N/A   Mostly Cloudy
3:38 PM 55.4 °F 51.8 °F 88% 29.90 in 10.0 mi Calm Calm - N/A   Mostly Cloudy
3:55 PM 55.9 °F 52.0 °F 87% 29.94 in 10.0 mi Calm Calm - N/A   Mostly Cloudy
4:55 PM 57.0 °F 51.1 °F 81% 29.95 in 10.0 mi WSW 4.6 mph - N/A   Mostly Cloudy
5:02 PM 55.4 °F 51.8 °F 88% 29.92 in 10.0 mi West 8.1 mph - N/A   Overcast
5:29 PM 55.4 °F 51.8 °F 88% 29.93 in 10.0 mi WSW 6.9 mph - N/A   Scattered Clouds
5:55 PM 55.0 °F 51.1 °F 86% 29.96 in 10.0 mi WSW 4.6 mph - N/A   Clear
6:55 PM 52.0 °F 50.0 °F 93% 29.98 in 10.0 mi East 5.8 mph - N/A   Scattered Clouds
7:55 PM 53.1 °F 51.1 °F 93% 29.99 in 10.0 mi ENE 6.9 mph - N/A   Mostly Cloudy
8:45 PM 53.6 °F 51.8 °F 94% 29.99 in 10.0 mi ENE 5.8 mph - N/A   Scattered Clouds
8:55 PM 53.1 °F 51.1 °F 93% 30.01 in 10.0 mi East 5.8 mph - N/A   Partly Cloudy
9:55 PM 51.1 °F 48.9 °F 92% 30.03 in 10.0 mi Calm Calm - N/A   Clear
10:55 PM 48.9 °F 46.9 °F 93% 30.06 in 10.0 mi Calm Calm - N/A   Clear
11:55 PM 48.0 °F 46.0 °F 93% 30.09 in 9.0 mi Calm Calm - N/A   Clear